Regional Weather Roundup
Issued by NWS

Home | Current Version | Previous Version | Graphics & Text | Print | Product List | Glossary On
Versions: 1 2 3 4 5 6 7 8 9 10 11 12 13 14 15 16 17 18 19 20 21 22 23 24 25 26 27 28 29 30 31 32 33 34 35 36 37 38 39 40 41 42 43 44 45 46 47 48 49 50
321
ASUS43 KMPX 152210
RWRMN
WEATHER ROUNDUP FOR MINNESOTA
NATIONAL WEATHER SERVICE TWIN CITIES/CHANHASSEN MN
400 PM CST FRI DEC 15 2017


NOTE: "FAIR" INDICATES FEW OR NO CLOUDS BELOW 12,000 FEET WITH NO
SIGNIFICANT WEATHER AND/OR OBSTRUCTIONS TO VISIBILITY. N/A MEANS
CURRENT SKY AND/OR WEATHER CONDITIONS ARE NOT AVAILABLE.

MNZ060>063-068>070-152300-
   Twin Cities Metro

CITY           SKY/WX    TMP DP  RH WIND       PRES   REMARKS
TWIN CITIES    CLOUDY    28  22  78 SE3       29.79S
ST PAUL        CLOUDY    26  19  74 SE3       29.80F
CRYSTAL        CLOUDY    26  16  65 CALM      29.77F
BLAINE         CLOUDY    27  19  74 CALM      29.77F
LAKEVILLE        N/A     27  25  93 CALM      29.78S
EDEN PRAIRIE   CLOUDY    29  22  75 S5        29.77F WCI  24
SOUTH ST PAUL  CLOUDY    27  19  72 CALM      29.79S
LAKE ELMO      CLOUDY    27  19  74 CALM      29.79F
$$
MNZ001>005-007-008-013>017-022>024-027-028-152300-
   Northwest Minnesota

CITY           SKY/WX    TMP DP  RH WIND       PRES   REMARKS
BEMIDJI        FLURRIES  14   9  80 SE6       29.69F WCI   5
HALLOCK        LGT SNOW  19  16  86 SE12      29.68F WCI   7
ROSEAU         FLURRIES  14   9  79 E7        29.72S WCI   4
WARROAD        FLURRIES  10   7  85 NE8       29.74R WCI  -1
THIEF RVR FALL LGT SNOW  18  12  79 SE9       29.69  FOG     WCI   6
CROOKSTON      FLURRIES  21  18  86 SE10      29.69F WCI  10
FOSSTON        LGT SNOW  18  12  79 SE3       29.69S
DETROIT LAKES  CLOUDY    25  19  80 S9        29.68F WCI  15
MOORHEAD       CLOUDY    27  21  80 CALM      29.67F
PARK RAPIDS    CLOUDY    18  12  77 SE7       29.68F WCI   9
MAHNOMEN       CLOUDY    20  16  84 SE5       29.68S WCI  14
$$
MNZ006-009>011-018-025>026-152300-
   North Central Minnesota

CITY           SKY/WX    TMP DP  RH WIND       PRES   REMARKS
BAUDETTE       FLURRIES  10   5  80 E6        29.73S WCI   0
FLAG ISLAND    FLURRIES   7   3  85 E3        29.75R
INTL FALLS     CLOUDY     7   1  76 CALM      29.75S
WASKISH        FLURRIES  12   9  85 SE3       29.73R
BIG FORK       CLOUDY    12   5  73 S3        29.71F
LONGVILLE      FLURRIES  18  10  73 CALM      29.71F
GRAND RAPIDS   CLOUDY    14   6  70 CALM      29.74F
CRANE LAKE     CLOUDY     7   1  78 CALM      29.77S
ORR            CLOUDY     9   1  72 CALM      29.71R
COOK           CLOUDY    10   1  67 CALM      29.73F
WALKER         CLOUDY    15   9  76 SE3       29.70F
$$
MNZ012-019>021-037-152300-
   Northeast Minnesota

CITY           SKY/WX    TMP DP  RH WIND       PRES   REMARKS
DULUTH         CLOUDY    11   4  73 CALM      29.73S
ELY            PTCLDY     9   1  72 CALM      29.73S
HIBBING        CLOUDY    11   3  70 CALM      29.73S
EVELETH        PTCLDY    10   0  64 CALM      29.74S
DULUTH HARBOR  CLOUDY    18   7  62 CALM      29.81S
TWO HARBORS    CLEAR     16   3  57 CALM      29.74S
SILVER BAY     PTCLDY    12   5  73 CALM      29.75S
GRAND MARAIS     N/A     12   0  58 CALM      29.81S
G MARAIS ARPRT CLOUDY     3  -6  66 NW3       29.70S
$$
MNZ029>031-032-039>041-046>048-054>057-064-152300-
   West Central Minnesota

CITY           SKY/WX    TMP DP  RH WIND       PRES   REMARKS
FERGUS FALLS   CLOUDY    27  25  93 SE8       29.71F WCI  18
WHEATON        CLOUDY    30  28  93 SE9       29.69F WCI  22
MORRIS         CLOUDY    30  28  93 SE9       29.69F WCI  22
ALEXANDRIA     CLOUDY    27  22  81 SE9       29.70F WCI  18
ELBOW LAKE     CLOUDY    28  26  93 SE10      29.69F WCI  18
WADENA         MIX PCPN  21  16  79 S6        29.69F WCI  14
GLENWOOD       CLOUDY    28  25  86 S7        29.71F WCI  21
APPLETON       CLOUDY    36  30  80 SE6       29.69F
BENSON         CLOUDY    32  28  86 S7        29.72F WCI  26
ORTONVILLE     CLOUDY    34  30  86 SE7       29.67F WCI  28
MADISON        CLOUDY    39  32  75 S3        29.69F
WILLMAR        FAIR      32  30  93 SE7       29.73F WCI  26
$$
MNZ033>034-036-042>043-049>051-058-059-152300-
   Central Minnesota

CITY           SKY/WX    TMP DP  RH WIND       PRES   REMARKS
ST CLOUD       CLOUDY    24  18  77 SE7       29.75F WCI  16
SAUK CENTRE    CLOUDY    25  20  81 SE6       29.73S WCI  18
PAYNESVILLE    CLOUDY    28  26  89 S6        29.74S WCI  22
AITKIN         CLOUDY    18  10  73 CALM      29.72F
PINE RIVER     CLOUDY    18  10  73 S3        29.75F
BRAINERD       CLOUDY    21  12  68 S5        29.73F WCI  15
STAPLES        CLOUDY    19  12  73 S6        29.71F WCI  11
LITTLE FALLS   CLOUDY    23  12  63 CALM      29.74F
LITCHFIELD     CLOUDY    28  27  93 SE5       29.75F WCI  23
BUFFALO        CLOUDY    25  19  76 CALM      29.78F
MAPLE LAKE     CLOUDY    26  22  82 CALM      29.77S
HUTCHINSON     CLOUDY    29  27  92 E6        29.75F WCI  23
$$
MNZ037-044-045-052-053-152300-
   East Central Minnesota

CITY           SKY/WX    TMP DP  RH WIND       PRES   REMARKS
PRINCETON      CLOUDY    25  16  68 CALM      29.77S
MORA           CLOUDY    19  12  73 S6        29.79S WCI  11
CAMBRIDGE      CLOUDY    23  12  63 E3        29.78S
RUSH CITY      CLOUDY    19  11  70 S5        29.79F WCI  13
MOOSE LAKE     CLOUDY    21  10  63 CALM      29.74S
HINCKLEY       CLOUDY    21  14  73 S6        29.77F WCI  14
CLOQUET        CLOUDY    16   5  62 CALM      29.74S
MCGREGOR       CLOUDY    19  12  73 S5        29.74F WCI  13
$$
MNZ071>073-080-081-089-090-097-098-152300-
   Southwest Minnesota

CITY           SKY/WX    TMP DP  RH WIND       PRES   REMARKS
MONTEVIDEO     CLOUDY    37  28  70 CALM      29.71S
GRANITE FALLS  CLOUDY    39  31  73 S3        29.73S
CANBY          CLOUDY    39  29  67 SW3       29.70F
MARSHALL       CLOUDY    39  28  64 SW8       29.72F
REDWOOD FALLS  CLOUDY    39  30  70 SW5       29.72F
OLIVIA         CLOUDY    34  32  93 SE6       29.72F WCI  29
PIPESTONE      CLOUDY    37  27  65 SW9       29.71S
WINDOM           N/A     39  21  48 SW8       29.73F
WORTHINGTON    CLOUDY    38  26  62 SW12      29.74S
JACKSON        CLOUDY    37  27  65 SW10      29.75S
SLAYTON        CLOUDY    37  28  69 SW7       29.73S
$$
MNZ065>067-074>077-082>085-091>093-152300-
   South Central Minnesota

CITY           SKY/WX    TMP DP  RH WIND       PRES   REMARKS
MANKATO        CLOUDY    32  28  85 E6        29.76F WCI  26
NEW ULM        CLOUDY    37  27  65 CALM      29.74S
ST JAMES       CLOUDY    37  28  70 SW5       29.75F
FAIRMONT       CLOUDY    39  27  62 SW7       29.76F
GLENCOE        CLOUDY    30  27  88 E5        29.75F WCI  25
FARIBAULT      PTCLDY    30  27  86 CALM      29.78S
OWATONNA       MOCLDY    32  28  86 CALM      29.77S
WASECA         MOCLDY    32  28  86 CALM      29.77F
ALBERT LEA     MOCLDY    34  27  75 CALM      29.76F
$$
MNZ078>079-086>088-094>096-152300-
   Southeast Minnesota

CITY           SKY/WX    TMP DP  RH WIND       PRES   REMARKS
ROCHESTER      CLOUDY    31  28  89 SW6       29.78S WCI  25
RED WING       CLOUDY    30  19  64 CALM      29.79S
STANTON        CLOUDY    30  25  83 CALM      29.77F
DODGE CENTER   CLOUDY    30  28  93 SW3       29.77S
WINONA         CLOUDY    32  27  80 CALM      29.82R
AUSTIN         PTCLDY    34  27  75 CALM      29.77F
PRESTON        CLOUDY    31  27  85 W6        29.79S WCI  26
$$
ABBREVIATIONS USED IN REMARKS
   TC - TEMPERATURES IN CELSIUS
  WCI - WIND CHILL INDEX
   HX - HEAT INDEX
  VSB - VISIBILITY
$$




USA.gov is the U.S. government's official web portal to all federal, state and local government web resources and services.